This is the latest recevied weather packets stored in our database for station/object N5BTB-10. If no packets are shown the sender has not sent any weather packets the latest 10 day(s).
| Time | Temp. | Humidity | Pressure | Rain* | Wind** | Luminosity | Snow |
|---|---|---|---|---|---|---|---|
| 1777734005 | 10.56° C | 81% | - | 0 mm | - | - | - |
| 1777730405 | 10° C | 83% | - | 0 mm | - | - | - |
| 1777726805 | 10° C | 84% | - | 0 mm | - | - | - |
| 1777723206 | 10° C | 84% | - | 0 mm | - | - | - |
| 1777719606 | 9.44° C | 85% | - | 0 mm | - | - | - |
| 1777716006 | 9.44° C | 85% | - | 0 mm | - | - | - |
| 1777712406 | 10° C | 83% | - | 0 mm | - | - | - |
| 1777708806 | 10° C | 81% | - | 0 mm | - | - | - |
| 1777705206 | 10° C | 81% | - | 0 mm | - | - | - |
| 1777701606 | 10° C | 81% | - | 0 mm | - | - | - |
| 1777698006 | 10.56° C | 80% | - | 0 mm | - | - | - |
| 1777694406 | 11.11° C | 79% | - | 0 mm | - | - | - |
| 1777690806 | 11.67° C | 76% | - | 0 mm | - | - | - |
| 1777687206 | 13.33° C | 72% | - | 0 mm | - | - | - |
| 1777683606 | 14.44° C | 70% | - | 0 mm | - | - | - |
| 1777680006 | 16.67° C | 68% | - | 0 mm | - | - | - |
| 1777676406 | 18.33° C | 65% | - | 0 mm | - | - | - |
| 1777672806 | 19.44° C | 62% | - | 0 mm | - | - | - |
| 1777669205 | 20° C | 60% | - | 0 mm | - | - | - |
| 1777665605 | 19.44° C | 53% | - | 0 mm | - | - | - |
| 1777662005 | 17.78° C | 58% | - | 0 mm | - | - | - |
| 1777658405 | 16.11° C | 64% | - | 0 mm | - | - | - |
| 1777654805 | 13.89° C | 72% | - | 0 mm | - | - | - |
| 1777651205 | 12.78° C | 77% | - | 0 mm | - | - | - |
| 1777647605 | 11.67° C | 82% | - | 0 mm | - | - | - |
* Rain latest hour (hover to see other rain measurements)
** Current wind speed in m/s (hover to see current wind gust speed)